�������l�o���
Date,Time,MP-1(��Sv/h),MP-2(��Sv/h),MP-3(��Sv/h),MP-4(��Sv/h),MP-5(��Sv/h),MP-6(��Sv/h),MP-7(��Sv/h),MP-8(��Sv/h),����,����(m/s),���J
2017/09/15,00:00,0.949,1.513,0.988,1.795,1.253,0.514,0.946,0.871,�k��,5.5,��
2017/09/15,00:10,0.947,1.515,0.986,1.789,1.253,0.516,0.944,0.870,�k��,5.6,��
2017/09/15,00:20,0.950,1.514,0.987,1.792,1.255,0.515,0.945,0.869,�k��,5.3,��
2017/09/15,00:30,0.948,1.512,0.986,1.793,1.256,0.513,0.944,0.870,�k��,5.3,��
2017/09/15,00:40,0.947,1.514,0.985,1.793,1.254,0.514,0.945,0.871,���k��,5.4,��
2017/09/15,00:50,0.949,1.514,0.986,1.792,1.255,0.516,0.944,0.871,���k��,4.9,��
2017/09/15,01:00,0.948,1.512,0.985,1.791,1.253,0.515,0.945,0.872,�k��,5.3,��
2017/09/15,01:10,0.949,1.513,0.985,1.791,1.254,0.515,0.944,0.871,�k��,5.0,��
2017/09/15,01:20,0.948,1.513,0.988,1.789,1.254,0.516,0.944,0.870,���k��,5.7,��
2017/09/15,01:30,0.947,1.512,0.986,1.792,1.252,0.514,0.945,0.868,�k��,5.7,��
2017/09/15,01:40,0.947,1.513,0.987,1.793,1.251,0.516,0.945,0.871,�k��,6.2,��
2017/09/15,01:50,0.947,1.512,0.986,1.791,1.252,0.515,0.946,0.871,�k��,6.8,��
2017/09/15,02:00,0.948,1.514,0.986,1.789,1.254,0.516,0.946,0.870,�k��,5.6,��
2017/09/15,02:10,0.948,1.510,0.988,1.792,1.255,0.516,0.946,0.871,�k��,5.7,��
2017/09/15,02:20,0.947,1.514,0.987,1.791,1.256,0.515,0.944,0.871,�k��,5.9,��
2017/09/15,02:30,0.946,1.512,0.986,1.791,1.254,0.515,0.945,0.870,�k��,6.3,��
2017/09/15,02:40,0.950,1.512,0.987,1.792,1.254,0.516,0.944,0.870,�k��,7.5,��
2017/09/15,02:50,0.947,1.512,0.985,1.793,1.253,0.516,0.943,0.872,�k��,6.0,��
2017/09/15,03:00,0.950,1.514,0.987,1.791,1.253,0.517,0.948,0.870,�k��,8.6,��
2017/09/15,03:10,0.947,1.514,0.986,1.792,1.253,0.515,0.945,0.870,�k��,7.5,��
2017/09/15,03:20,0.949,1.512,0.988,1.790,1.254,0.513,0.947,0.871,���k��,6.7,��
2017/09/15,03:30,0.945,1.513,0.985,1.793,1.254,0.515,0.945,0.871,���k��,7.3,��
2017/09/15,03:40,0.948,1.514,0.987,1.792,1.253,0.515,0.943,0.869,���k��,6.0,��
2017/09/15,03:50,0.947,1.514,0.985,1.794,1.253,0.513,0.943,0.869,�k��,6.0,��
2017/09/15,04:00,0.947,1.512,0.985,1.793,1.253,0.514,0.944,0.870,���k��,6.0,��
2017/09/15,04:10,0.948,1.514,0.986,1.789,1.254,0.514,0.942,0.871,���k��,7.3,��
2017/09/15,04:20,0.946,1.512,0.985,1.793,1.253,0.512,0.942,0.870,���k��,8.8,��
2017/09/15,04:30,0.948,1.514,0.987,1.793,1.254,0.514,0.942,0.870,���k��,10.0,��
2017/09/15,04:40,0.944,1.510,0.985,1.792,1.254,0.514,0.942,0.870,���k��,8.8,��
2017/09/15,04:50,0.945,1.514,0.985,1.791,1.253,0.514,0.943,0.871,���k��,8.7,��
2017/09/15,05:00,0.946,1.514,0.986,1.793,1.252,0.514,0.942,0.871,���k��,9.5,��
2017/09/15,05:10,0.946,1.512,0.986,1.792,1.255,0.516,0.943,0.870,���k��,7.9,��
2017/09/15,05:20,0.947,1.512,0.983,1.794,1.250,0.514,0.943,0.872,�k��,6.7,��
2017/09/15,05:30,0.947,1.513,0.985,1.794,1.251,0.514,0.946,0.871,�k��,6.0,��
2017/09/15,05:40,0.945,1.513,0.983,1.794,1.252,0.514,0.945,0.871,�k��,6.4,��
2017/09/15,05:50,0.947,1.513,0.985,1.793,1.253,0.513,0.945,0.870,���k��,7.9,��
2017/09/15,06:00,0.946,1.511,0.984,1.790,1.252,0.514,0.943,0.871,���k��,8.7,��
2017/09/15,06:10,0.947,1.512,0.983,1.796,1.253,0.513,0.944,0.872,���k��,7.9,��
2017/09/15,06:20,0.947,1.515,0.985,1.793,1.253,0.515,0.944,0.871,���k��,7.5,��
2017/09/15,06:30,0.949,1.515,0.985,1.795,1.251,0.514,0.944,0.869,���k��,8.0,��
2017/09/15,06:40,0.948,1.514,0.988,1.795,1.254,0.514,0.946,0.869,���k��,9.0,��
2017/09/15,06:50,0.945,1.515,0.987,1.795,1.254,0.515,0.945,0.871,���k��,8.1,��
2017/09/15,07:00,0.948,1.513,0.986,1.795,1.252,0.515,0.947,0.870,���k��,6.0,��
2017/09/15,07:10,0.948,1.516,0.988,1.796,1.249,0.513,0.946,0.872,���k��,7.5,��
2017/09/15,07:20,0.948,1.514,0.987,1.797,1.251,0.513,0.945,0.871,���k��,8.8,��
2017/09/15,07:30,0.948,1.512,0.988,1.797,1.253,0.512,0.946,0.870,���k��,7.7,��
2017/09/15,07:40,0.949,1.510,0.990,1.797,1.252,0.512,0.947,0.871,�k��,4.3,��
2017/09/15,07:50,0.950,1.510,0.989,1.798,1.254,0.512,0.946,0.871,��,4.0,��
2017/09/15,08:00,0.949,1.511,0.985,1.796,1.257,0.513,0.945,0.871,���k��,3.8,��
2017/09/15,08:10,0.948,1.508,0.986,1.797,1.256,0.514,0.944,0.872,���k��,5.5,��
2017/09/15,08:20,0.948,1.512,0.985,1.795,1.257,0.514,0.945,0.871,���k��,5.9,��
2017/09/15,08:30,0.948,1.512,0.984,1.796,1.255,0.513,0.944,0.872,���k��,5.0,��
2017/09/15,08:40,0.949,1.512,0.984,1.799,1.255,0.513,0.944,0.869,���k��,6.0,��
2017/09/15,08:50,0.947,1.512,0.986,1.801,1.252,0.514,0.945,0.868,�k��,7.4,��
2017/09/15,09:00,0.949,1.515,0.984,1.802,1.253,0.514,0.946,0.870,�k��,8.4,��
2017/09/15,09:10,0.948,1.512,0.986,1.800,1.251,0.514,0.946,0.868,�k��,6.9,��
2017/09/15,09:20,0.951,1.514,0.988,1.798,1.253,0.514,0.946,0.868,�k��,8.0,��
2017/09/15,09:30,0.952,1.514,0.989,1.800,1.255,0.516,0.946,0.868,���k��,5.5,��
2017/09/15,09:40,0.951,1.516,0.987,1.803,1.256,0.515,0.945,0.869,���k��,6.8,��
2017/09/15,09:50,0.951,1.512,0.987,1.802,1.257,0.514,0.946,0.870,�k��,6.8,��
2017/09/15,10:00,0.951,1.515,0.987,1.802,1.258,0.516,0.946,0.872,�k��,8.5,��
2017/09/15,10:10,0.954,1.514,0.988,1.803,1.257,0.515,0.946,0.870,�k��,6.9,��
2017/09/15,10:20,0.954,1.515,0.989,1.804,1.259,0.516,0.947,0.868,�k��,6.5,��
2017/09/15,10:30,0.954,1.520,0.989,1.805,1.259,0.517,0.947,0.870,���k��,6.2,��
2017/09/15,10:40,0.955,1.520,0.991,1.803,1.258,0.516,0.947,0.870,�k��,7.4,��
2017/09/15,10:50,0.951,1.517,0.989,1.801,1.262,0.516,0.945,0.870,�k��,6.3,��
2017/09/15,11:00,0.956,1.513,0.990,1.807,1.261,0.516,0.948,0.869,���k��,6.9,��
2017/09/15,11:10,0.957,1.522,0.991,1.804,1.262,0.516,0.949,0.869,���k��,6.0,��
2017/09/15,11:20,0.955,1.518,0.991,1.808,1.264,0.516,0.947,0.872,���k��,7.5,��
2017/09/15,11:30,0.955,1.518,0.993,1.807,1.260,0.518,0.948,0.872,�k��,8.9,��
2017/09/15,11:40,0.957,1.521,0.994,1.807,1.265,0.516,0.948,0.871,���k��,7.8,��
2017/09/15,11:50,0.957,1.521,0.991,1.807,1.265,0.517,0.948,0.872,�k��,6.0,��
2017/09/15,12:00,0.956,1.521,0.994,1.808,1.266,0.519,0.947,0.874,�k��,7.4,��
2017/09/15,12:10,0.958,1.523,0.994,1.806,1.265,0.516,0.950,0.872,�k��,6.9,��
2017/09/15,12:20,0.958,1.526,0.992,1.806,1.266,0.517,0.951,0.872,���k��,7.2,��
2017/09/15,12:30,0.955,1.527,0.993,1.810,1.262,0.516,0.949,0.871,���k��,6.8,��
2017/09/15,12:40,0.958,1.529,0.997,1.811,1.267,0.518,0.948,0.869,���k��,7.6,��
2017/09/15,12:50,0.960,1.526,0.993,1.809,1.267,0.515,0.948,0.874,�k��,6.8,��
2017/09/15,13:00,0.961,1.529,0.994,1.811,1.267,0.515,0.948,0.870,�k��,6.7,��
2017/09/15,13:10,0.961,1.526,0.994,1.812,1.265,0.517,0.949,0.873,�k��,5.6,��
2017/09/15,13:20,0.958,1.529,0.998,1.812,1.270,0.518,0.950,0.871,�k��,6.9,��
2017/09/15,13:30,0.959,1.528,0.995,1.811,1.269,0.517,0.949,0.872,�k��,7.0,��
2017/09/15,13:40,0.959,1.528,0.995,1.813,1.268,0.518,0.950,0.872,�k��,6.2,��
2017/09/15,13:50,0.960,1.533,0.995,1.812,1.267,0.516,0.950,0.872,�k��,6.4,��
2017/09/15,14:00,0.958,1.526,0.996,1.813,1.266,0.518,0.950,0.873,�k��,7.8,��
2017/09/15,14:10,0.961,1.527,0.998,1.813,1.270,0.517,0.949,0.872,�k��,7.4,��
2017/09/15,14:20,0.957,1.529,0.994,1.814,1.270,0.517,0.950,0.872,�k��,7.6,��
2017/09/15,14:30,0.960,1.530,0.996,1.816,1.272,0.518,0.950,0.871,�k��,7.9,��
2017/09/15,14:40,0.959,1.526,0.999,1.812,1.269,0.519,0.949,0.872,�k�k��,6.2,��
2017/09/15,14:50,0.959,1.531,0.996,1.815,1.269,0.519,0.950,0.872,�k��,7.8,��
2017/09/15,15:00,0.957,1.527,0.995,1.817,1.271,0.518,0.950,0.874,�k��,9.2,��
2017/09/15,15:10,0.960,1.528,0.996,1.815,1.270,0.518,0.950,0.874,�k��,9.3,��
2017/09/15,15:20,0.961,1.531,0.996,1.815,1.272,0.519,0.949,0.873,�k��,8.5,��
2017/09/15,15:30,0.959,1.530,0.996,1.812,1.271,0.520,0.949,0.873,�k��,6.8,��
2017/09/15,15:40,0.961,1.530,0.996,1.814,1.271,0.519,0.951,0.872,�k��,5.5,��
2017/09/15,15:50,0.959,1.531,0.995,1.811,1.271,0.518,0.949,0.873,�k��,4.4,��
2017/09/15,16:00,0.960,1.530,0.995,1.809,1.271,0.519,0.949,0.871,�k�k��,4.6,��
2017/09/15,16:10,0.960,1.532,0.993,1.813,1.271,0.517,0.951,0.874,�k��,4.1,��
2017/09/15,16:20,0.961,1.530,0.996,1.816,1.272,0.515,0.950,0.871,�k�k��,5.6,��
2017/09/15,16:30,0.958,1.531,0.995,1.812,1.268,0.515,0.949,0.871,�k�k��,5.9,��
2017/09/15,16:40,0.959,1.531,0.995,1.812,1.270,0.518,0.950,0.872,�k�k��,5.3,��
2017/09/15,16:50,0.961,1.533,0.997,1.816,1.271,0.517,0.949,0.872,�k�k��,5.3,��
2017/09/15,17:00,0.959,1.532,0.995,1.815,1.272,0.517,0.950,0.871,�k�k��,6.2,��
2017/09/15,17:10,0.960,1.535,0.995,1.815,1.270,0.518,0.947,0.873,�k�k��,6.9,��
2017/09/15,17:20,0.961,1.530,0.998,1.818,1.271,0.518,0.949,0.874,�k�k��,5.6,��
2017/09/15,17:30,0.959,1.533,0.996,1.818,1.272,0.518,0.949,0.873,�k�k��,6.1,��
2017/09/15,17:40,0.960,1.531,0.994,1.817,1.273,0.516,0.949,0.874,�k�k��,3.9,��
2017/09/15,17:50,0.960,1.531,0.996,1.816,1.273,0.517,0.950,0.874,�k��,3.9,��
2017/09/15,18:00,0.959,1.533,0.996,1.816,1.272,0.517,0.950,0.872,�k��,3.6,��
2017/09/15,18:10,0.961,1.534,0.997,1.819,1.271,0.517,0.950,0.874,�k�k��,4.8,��
2017/09/15,18:20,0.961,1.535,0.998,1.817,1.272,0.515,0.952,0.876,�k�k��,5.1,��
2017/09/15,18:30,0.960,1.533,0.999,1.819,1.272,0.518,0.949,0.874,�k�k��,3.9,��
2017/09/15,18:40,0.959,1.535,0.996,1.817,1.273,0.518,0.951,0.875,�k�k��,3.9,��
2017/09/15,18:50,0.959,1.534,0.997,1.817,1.272,0.517,0.950,0.875,�k��,3.4,��
2017/09/15,19:00,0.960,1.536,0.997,1.819,1.271,0.517,0.949,0.873,�k��,4.9,��
2017/09/15,19:10,0.960,1.534,0.997,1.816,1.271,0.516,0.949,0.876,�k��,4.7,��
2017/09/15,19:20,0.959,1.534,0.999,1.818,1.274,0.516,0.949,0.874,�k�k��,4.7,��
2017/09/15,19:30,0.956,1.534,0.997,1.817,1.272,0.517,0.950,0.874,�k�k��,3.9,��
2017/09/15,19:40,0.956,1.533,0.999,1.819,1.274,0.516,0.950,0.873,�k�k��,5.9,��
2017/09/15,19:50,0.955,1.539,0.998,1.816,1.274,0.517,0.950,0.875,�k��,6.0,��
2017/09/15,20:00,0.954,1.534,0.996,1.818,1.272,0.517,0.948,0.874,�k��,5.8,��
2017/09/15,20:10,0.952,1.534,0.997,1.818,1.270,0.516,0.948,0.873,�k��,6.3,��
2017/09/15,20:20,0.955,1.534,0.997,1.817,1.272,0.518,0.948,0.875,�k�k��,5.9,��
2017/09/15,20:30,0.953,1.535,0.997,1.816,1.273,0.515,0.948,0.874,�k��,6.4,��
2017/09/15,20:40,0.952,1.538,0.996,1.817,1.271,0.516,0.950,0.873,�k�k��,6.7,��
2017/09/15,20:50,0.954,1.533,0.998,1.817,1.275,0.516,0.948,0.873,�k��,6.0,��
2017/09/15,21:00,0.956,1.534,0.997,1.818,1.273,0.515,0.950,0.874,�k��,4.9,��
2017/09/15,21:10,0.955,1.534,0.995,1.816,1.271,0.515,0.948,0.874,�k��,3.9,��
2017/09/15,21:20,0.955,1.532,0.999,1.816,1.273,0.514,0.949,0.873,�k�k��,3.7,��
2017/09/15,21:30,0.956,1.535,0.997,1.813,1.272,0.515,0.947,0.873,�k�k��,3.4,��
2017/09/15,21:40,0.956,1.534,0.996,1.819,1.273,0.515,0.949,0.873,���k��,2.2,��
2017/09/15,21:50,0.957,1.535,0.999,1.816,1.273,0.516,0.948,0.873,���k��,2.5,�L
2017/09/15,22:00,0.957,1.533,0.997,1.814,1.270,0.516,0.949,0.873,�k��,1.7,�L
2017/09/15,22:10,0.958,1.533,0.996,1.814,1.273,0.516,0.949,0.874,�k�k��,1.5,��
2017/09/15,22:20,0.958,1.534,0.996,1.817,1.274,0.516,0.947,0.876,�k��,1.5,��
2017/09/15,22:30,0.958,1.536,0.994,1.817,1.271,0.515,0.948,0.874,�k,1.7,��
2017/09/15,22:40,0.959,1.533,0.994,1.816,1.274,0.514,0.948,0.875,�k�k��,1.2,��
2017/09/15,22:50,0.959,1.533,0.996,1.814,1.273,0.516,0.948,0.874,�k��,0.6,��
2017/09/15,23:00,0.959,1.534,0.996,1.815,1.271,0.516,0.949,0.873,�k�k��,1.4,��
2017/09/15,23:10,0.958,1.535,0.995,1.818,1.274,0.515,0.950,0.874,�k��,1.4,��
2017/09/15,23:20,0.959,1.534,0.994,1.816,1.271,0.516,0.948,0.874,���k��,2.3,��
2017/09/15,23:30,0.959,1.532,0.998,1.817,1.271,0.517,0.950,0.873,���k��,1.7,�L
2017/09/15,23:40,0.960,1.533,0.997,1.817,1.268,0.516,0.949,0.872,�k��,2.6,��
2017/09/15,23:50,0.959,1.531,0.996,1.818,1.270,0.515,0.948,0.874,�k��,2.3,�L
